Time,TemperatureF,DewpointF,PressureIn,WindDirection,WindDirectionDegrees,WindSpeedMPH,WindSpeedGustMPH,Humidity,HourlyPrecipIn,Conditions,Clouds,dailyrainin,SoftwareType,DateUTC
2013-02-19 00:12:00,53.7,30.0,30.01,NNE,13,8.0,18.0,41,0.00,,,0.00,weatherlink.com 1.10,2013-02-19 06:12:00,
2013-02-19 00:27:00,53.3,30.0,30.02,NNW,345,9.0,18.0,41,0.00,,,0.00,weatherlink.com 1.10,2013-02-19 06:27:00,
2013-02-19 00:42:00,52.9,30.0,30.01,NNE,15,14.0,18.0,42,0.00,,,0.00,weatherlink.com 1.10,2013-02-19 06:42:00,
2013-02-19 00:57:00,52.3,30.0,30.02,NW,304,8.0,13.0,43,0.00,,,0.00,weatherlink.com 1.10,2013-02-19 06:57:00,
2013-02-19 01:12:00,51.9,30.0,30.03,NNW,336,6.0,15.0,44,0.00,,,0.00,weatherlink.com 1.10,2013-02-19 07:12:00,
2013-02-19 01:27:00,51.3,30.0,30.03,WSW,238,0.0,10.0,45,0.00,,,0.00,weatherlink.com 1.10,2013-02-19 07:27:00,
2013-02-19 01:43:00,50.6,30.0,30.04,WNW,292,2.0,8.0,46,0.00,,,0.00,weatherlink.com 1.10,2013-02-19 07:43:00,
2013-02-19 01:58:00,50.1,30.0,30.05,SSW,193,0.0,6.0,47,0.00,,,0.00,weatherlink.com 1.10,2013-02-19 07:58:00,
2013-02-19 02:13:00,49.5,30.0,30.05,WSW,240,0.0,4.0,48,0.00,,,0.00,weatherlink.com 1.10,2013-02-19 08:13:00,
2013-02-19 02:28:00,48.9,30.0,30.05,West,280,1.0,5.0,49,0.00,,,0.00,weatherlink.com 1.10,2013-02-19 08:28:00,
2013-02-19 02:43:00,47.8,30.0,30.06,SSW,198,0.0,3.0,50,0.00,,,0.00,weatherlink.com 1.10,2013-02-19 08:43:00,
2013-02-19 02:58:00,46.9,30.0,30.07,NNE,23,0.0,3.0,52,0.00,,,0.00,weatherlink.com 1.10,2013-02-19 08:58:00,
2013-02-19 03:13:00,45.8,29.0,30.07,NNW,342,1.0,3.0,53,0.00,,,0.00,weatherlink.com 1.10,2013-02-19 09:13:00,
2013-02-19 03:28:00,43.9,30.0,30.07,SW,225,1.0,4.0,58,0.00,,,0.00,weatherlink.com 1.10,2013-02-19 09:28:00,
2013-02-19 03:43:00,42.0,29.0,30.07,NE,43,0.0,3.0,60,0.00,,,0.00,weatherlink.com 1.10,2013-02-19 09:43:00,
2013-02-19 03:58:00,41.0,29.0,30.07,SW,232,1.0,2.0,63,0.00,,,0.00,weatherlink.com 1.10,2013-02-19 09:58:00,
2013-02-19 04:13:00,40.6,29.0,30.08,NNE,27,0.0,3.0,63,0.00,,,0.00,weatherlink.com 1.10,2013-02-19 10:13:00,
2013-02-19 04:28:00,40.1,29.0,30.09,NNW,339,1.0,1.0,65,0.00,,,0.00,weatherlink.com 1.10,2013-02-19 10:28:00,
2013-02-19 04:43:00,38.9,28.0,30.10,North,357,1.0,2.0,65,0.00,,,0.00,weatherlink.com 1.10,2013-02-19 10:43:00,
2013-02-19 04:58:00,37.2,28.0,30.11,NNW,338,0.0,3.0,69,0.00,,,0.00,weatherlink.com 1.10,2013-02-19 10:58:00,
2013-02-19 05:13:00,36.5,28.0,30.10,NNW,338,0.0,1.0,72,0.00,,,0.00,weatherlink.com 1.10,2013-02-19 11:13:00,
2013-02-19 05:28:00,36.4,28.0,30.12,NW,316,1.0,2.0,72,0.00,,,0.00,weatherlink.com 1.10,2013-02-19 11:28:00,
2013-02-19 05:43:00,36.1,28.0,30.12,WNW,283,0.0,2.0,73,0.00,,,0.00,weatherlink.com 1.10,2013-02-19 11:43:00,
2013-02-19 05:58:00,35.7,28.0,30.14,NW,314,0.0,2.0,74,0.00,,,0.00,weatherlink.com 1.10,2013-02-19 11:58:00,
2013-02-19 06:14:00,35.1,28.0,30.14,NW,321,0.0,2.0,74,0.00,,,0.00,weatherlink.com 1.10,2013-02-19 12:14:00,
2013-02-19 06:29:00,34.4,28.0,30.15,NW,315,0.0,3.0,76,0.00,,,0.00,weatherlink.com 1.10,2013-02-19 12:29:00,
2013-02-19 06:44:00,33.8,27.0,30.16,NNW,333,1.0,118.0,77,0.00,,,0.00,weatherlink.com 1.10,2013-02-19 12:44:00,
2013-02-19 06:59:00,33.8,28.0,30.17,WNW,292,0.0,0.0,78,0.00,,,0.00,weatherlink.com 1.10,2013-02-19 12:59:00,
2013-02-19 07:14:00,33.7,28.0,30.17,West,262,1.0,1.0,79,0.00,,,0.00,weatherlink.com 1.10,2013-02-19 13:14:00,
2013-02-19 07:29:00,33.8,28.0,30.17,SW,235,0.0,1.0,78,0.00,,,0.00,weatherlink.com 1.10,2013-02-19 13:29:00,
2013-02-19 07:44:00,34.9,29.0,30.18,WSW,257,0.0,1.0,79,0.00,,,0.00,weatherlink.com 1.10,2013-02-19 13:44:00,
2013-02-19 07:59:00,37.7,31.0,30.19,North,357,0.0,1.0,76,0.00,,,0.00,weatherlink.com 1.10,2013-02-19 13:59:00,
2013-02-19 08:14:00,41.3,31.0,30.19,ENE,62,1.0,3.0,66,0.00,,,0.00,weatherlink.com 1.10,2013-02-19 14:14:00,
2013-02-19 08:29:00,46.2,30.0,30.20,NE,44,1.0,4.0,54,0.00,,,0.00,weatherlink.com 1.10,2013-02-19 14:29:00,
2013-02-19 08:44:00,48.7,30.0,30.20,NNE,25,7.0,8.0,48,0.00,,,0.00,weatherlink.com 1.10,2013-02-19 14:44:00,
2013-02-19 08:59:00,50.1,29.0,30.20,East,79,3.0,7.0,44,0.00,,,0.00,weatherlink.com 1.10,2013-02-19 14:59:00,
2013-02-19 09:14:00,51.4,28.0,30.20,NE,49,5.0,13.0,40,0.00,,,0.00,weatherlink.com 1.10,2013-02-19 15:14:00,
2013-02-19 09:29:00,52.4,28.0,30.19,ENE,68,4.0,12.0,39,0.00,,,0.00,weatherlink.com 1.10,2013-02-19 15:29:00,
2013-02-19 09:44:00,53.4,27.0,30.20,ENE,63,4.0,9.0,36,0.00,,,0.00,weatherlink.com 1.10,2013-02-19 15:44:00,
2013-02-19 09:59:00,53.3,27.0,30.20,NE,46,7.0,12.0,37,0.00,,,0.00,weatherlink.com 1.10,2013-02-19 15:59:00,
2013-02-19 10:14:00,54.2,28.0,30.20,NE,53,5.0,10.0,36,0.00,,,0.00,weatherlink.com 1.10,2013-02-19 16:14:00,
2013-02-19 10:29:00,56.3,28.0,30.20,South,190,4.0,8.0,34,0.00,,,0.00,weatherlink.com 1.10,2013-02-19 16:29:00,
2013-02-19 10:44:00,56.4,27.0,30.21,East,87,3.0,11.0,33,0.00,,,0.00,weatherlink.com 1.10,2013-02-19 16:44:00,
2013-02-19 10:59:00,57.2,28.0,30.21,ENE,77,3.0,14.0,33,0.00,,,0.00,weatherlink.com 1.10,2013-02-19 16:59:00,
2013-02-19 11:14:00,57.3,28.0,30.20,NE,39,4.0,12.0,33,0.00,,,0.00,weatherlink.com 1.10,2013-02-19 17:14:00,
2013-02-19 11:29:00,58.6,29.0,30.20,ESE,117,2.0,10.0,32,0.00,,,0.00,weatherlink.com 1.10,2013-02-19 17:29:00,
2013-02-19 11:44:00,59.0,27.0,30.19,NE,44,3.0,9.0,29,0.00,,,0.00,weatherlink.com 1.10,2013-02-19 17:44:00,
2013-02-19 11:59:00,59.9,27.0,30.19,East,94,10.0,10.0,29,0.00,,,0.00,weatherlink.com 1.10,2013-02-19 17:59:00,
2013-02-19 12:14:00,60.0,26.0,30.18,NNE,26,7.0,9.0,27,0.00,,,0.00,weatherlink.com 1.10,2013-02-19 18:14:00,
2013-02-19 12:29:00,59.5,27.0,30.17,SSW,203,4.0,10.0,29,0.00,,,0.00,weatherlink.com 1.10,2013-02-19 18:29:00,
2013-02-19 12:44:00,60.5,27.0,30.16,SE,131,6.0,8.0,28,0.00,,,0.00,weatherlink.com 1.10,2013-02-19 18:44:00,
2013-02-19 12:59:00,62.0,29.0,30.15,ENE,60,11.0,11.0,29,0.00,,,0.00,weatherlink.com 1.10,2013-02-19 18:59:00,
2013-02-19 13:14:00,61.8,29.0,30.14,ENE,60,2.0,10.0,29,0.00,,,0.00,weatherlink.com 1.10,2013-02-19 19:14:00,
2013-02-19 13:29:00,64.1,27.0,30.13,SSE,167,5.0,11.0,25,0.00,,,0.00,weatherlink.com 1.10,2013-02-19 19:29:00,
2013-02-19 13:44:00,64.9,27.0,30.13,SSW,204,4.0,12.0,24,0.00,,,0.00,weatherlink.com 1.10,2013-02-19 19:44:00,
2013-02-19 14:00:00,64.2,25.0,30.12,ENE,77,3.0,13.0,23,0.00,,,0.00,weatherlink.com 1.10,2013-02-19 20:00:00,
2013-02-19 14:14:00,65.2,24.0,30.11,SE,131,6.0,11.0,21,0.00,,,0.00,weatherlink.com 1.10,2013-02-19 20:14:00,
2013-02-19 14:30:00,64.6,25.0,30.09,ENE,68,7.0,15.0,22,0.00,,,0.00,weatherlink.com 1.10,2013-02-19 20:30:00,
2013-02-19 14:45:00,65.5,27.0,30.09,SSW,209,4.0,13.0,23,0.00,,,0.00,weatherlink.com 1.10,2013-02-19 20:45:00,
2013-02-19 15:00:00,65.6,23.0,30.09,ENE,58,9.0,11.0,20,0.00,,,0.00,weatherlink.com 1.10,2013-02-19 21:00:00,
2013-02-19 15:15:00,63.9,23.0,30.08,SE,131,3.0,14.0,21,0.00,,,0.00,weatherlink.com 1.10,2013-02-19 21:15:00,
2013-02-19 15:30:00,63.4,25.0,30.08,SSW,209,2.0,10.0,23,0.00,,,0.00,weatherlink.com 1.10,2013-02-19 21:30:00,
2013-02-19 15:45:00,63.2,25.0,30.07,SSW,201,8.0,12.0,23,0.00,,,0.00,weatherlink.com 1.10,2013-02-19 21:45:00,
2013-02-19 16:00:00,62.1,24.0,30.06,SSW,198,7.0,14.0,23,0.00,,,0.00,weatherlink.com 1.10,2013-02-19 22:00:00,
2013-02-19 16:15:00,61.5,24.0,30.07,SSW,212,9.0,14.0,24,0.00,,,0.00,weatherlink.com 1.10,2013-02-19 22:15:00,
2013-02-19 16:30:00,61.3,25.0,30.06,SSW,197,1.0,12.0,25,0.00,,,0.00,weatherlink.com 1.10,2013-02-19 22:30:00,
2013-02-19 16:46:00,61.4,25.0,30.06,East,101,4.0,11.0,25,0.00,,,0.00,weatherlink.com 1.10,2013-02-19 22:46:00,
2013-02-19 17:00:00,61.4,25.0,30.07,South,177,4.0,9.0,25,0.00,,,0.00,weatherlink.com 1.10,2013-02-19 23:00:00,
2013-02-19 17:15:00,61.1,25.0,30.07,SSW,193,2.0,12.0,25,0.00,,,0.00,weatherlink.com 1.10,2013-02-19 23:15:00,
2013-02-19 17:30:00,60.9,25.0,30.06,ESE,121,3.0,9.0,25,0.00,,,0.00,weatherlink.com 1.10,2013-02-19 23:30:00,
2013-02-19 17:45:00,60.5,25.0,30.06,ESE,111,2.0,7.0,26,0.00,,,0.00,weatherlink.com 1.10,2013-02-19 23:45:00,
2013-02-19 18:00:00,60.2,25.0,30.06,SW,214,2.0,7.0,26,0.00,,,0.00,weatherlink.com 1.10,2013-02-20 00:00:00,
2013-02-19 18:15:00,59.8,25.0,30.05,SW,224,5.0,9.0,26,0.00,,,0.00,weatherlink.com 1.10,2013-02-20 00:15:00,
2013-02-19 18:30:00,59.3,25.0,30.05,NNW,338,3.0,8.0,27,0.00,,,0.00,weatherlink.com 1.10,2013-02-20 00:30:00,
2013-02-19 18:45:00,59.1,25.0,30.05,NNE,27,6.0,9.0,27,0.00,,,0.00,weatherlink.com 1.10,2013-02-20 00:45:00,
2013-02-19 19:00:00,59.0,25.0,30.06,South,182,2.0,7.0,27,0.00,,,0.00,weatherlink.com 1.10,2013-02-20 01:00:00,
2013-02-19 19:15:00,59.0,25.0,30.07,South,174,1.0,7.0,27,0.00,,,0.00,weatherlink.com 1.10,2013-02-20 01:15:00,
2013-02-19 19:30:00,58.8,26.0,30.07,WNW,285,1.0,8.0,28,0.00,,,0.00,weatherlink.com 1.10,2013-02-20 01:30:00,
2013-02-19 19:45:00,58.6,26.0,30.06,SW,229,3.0,10.0,29,0.00,,,0.00,weatherlink.com 1.10,2013-02-20 01:45:00,
2013-02-19 20:00:00,58.4,27.0,30.06,NE,48,1.0,11.0,30,0.00,,,0.00,weatherlink.com 1.10,2013-02-20 02:00:00,
2013-02-19 20:15:00,58.1,27.0,30.06,SSW,192,4.0,9.0,31,0.00,,,0.00,weatherlink.com 1.10,2013-02-20 02:15:00,
2013-02-19 20:30:00,57.9,27.0,30.06,SW,214,4.0,8.0,31,0.00,,,0.00,weatherlink.com 1.10,2013-02-20 02:30:00,
2013-02-19 20:45:00,57.6,28.0,30.05,North,359,2.0,7.0,32,0.00,,,0.00,weatherlink.com 1.10,2013-02-20 02:45:00,
2013-02-19 21:00:00,57.6,28.0,30.05,East,79,1.0,13.0,32,0.00,,,0.00,weatherlink.com 1.10,2013-02-20 03:00:00,
2013-02-19 21:15:00,57.5,28.0,30.04,ENE,57,2.0,10.0,32,0.00,,,0.00,weatherlink.com 1.10,2013-02-20 03:15:00,
2013-02-19 21:30:00,57.4,28.0,30.05,South,186,3.0,8.0,33,0.00,,,0.00,weatherlink.com 1.10,2013-02-20 03:30:00,
2013-02-19 21:45:00,57.3,28.0,30.03,SSW,200,6.0,17.0,33,0.00,,,0.00,weatherlink.com 1.10,2013-02-20 03:45:00,
2013-02-19 22:00:00,57.3,28.0,30.05,SSE,165,7.0,16.0,33,0.00,,,0.00,weatherlink.com 1.10,2013-02-20 04:00:00,
2013-02-19 22:15:00,57.3,27.0,30.06,WSW,250,4.0,14.0,32,0.00,,,0.00,weatherlink.com 1.10,2013-02-20 04:15:00,
2013-02-19 22:30:00,57.1,28.0,30.06,SSE,148,4.0,15.0,33,0.00,,,0.00,weatherlink.com 1.10,2013-02-20 04:30:00,
2013-02-19 22:45:00,56.8,29.0,30.06,West,261,3.0,11.0,34,0.00,,,0.00,weatherlink.com 1.10,2013-02-20 04:45:00,
2013-02-19 23:00:00,56.6,29.0,30.08,SE,134,4.0,9.0,35,0.00,,,0.00,weatherlink.com 1.10,2013-02-20 05:00:00,
2013-02-19 23:15:00,56.5,29.0,30.10,South,187,2.0,10.0,35,0.00,,,0.00,weatherlink.com 1.10,2013-02-20 05:15:00,
2013-02-19 23:30:00,56.4,27.0,30.09,SW,222,2.0,10.0,32,0.00,,,0.00,weatherlink.com 1.10,2013-02-20 05:30:00,
2013-02-19 23:45:00,56.2,27.0,30.08,SSW,203,2.0,12.0,32,0.00,,,0.00,weatherlink.com 1.10,2013-02-20 05:45:00,